When you browse on this site, cookies collect data to enhance your experience and personalize the content and advertising you see.
Visit our Privacy Policy to learn more. By continuing to use the site, you agree to this use of cookies and data.
  • In Lithuania
  • List of Countries
  • For 7 days
  • Water Temperature
  • Weather Map
  • Weather Widgets
  • user-avatar
    Login

    Hourly Weather Oksford

    Today, 28 February, Friday

    Time Temperature Precipitation Wind Pressure Humidity
    00:00 0°C° 0 mm 3 mps 755 mmHg 87%
    01:00 0°C° 0 mm 3 mps 754 mmHg 88%
    02:00 0°C° 0 mm 3 mps 754 mmHg 88%
    03:00 +1°C° 0 mm 3 mps 754 mmHg 88%
    04:00 +1°C° 0 mm 3 mps 753 mmHg 87%
    05:00 0°C° 0 mm 4 mps 753 mmHg 87%
    06:00 +1°C° 0 mm 4 mps 753 mmHg 87%
    07:00 +1°C° 0.4 mm 5 mps 751 mmHg 90%
    08:00 0°C° 0.4 mm 7 mps 750 mmHg 93%
    09:00 +1°C° 0.4 mm 8 mps 749 mmHg 96%
    10:00 +1°C° 1.3 mm 8 mps 748 mmHg 95%
    11:00 +2°C° 1.3 mm 9 mps 747 mmHg 94%
    12:00 +3°C° 1.3 mm 9 mps 746 mmHg 94%
    13:00 +6°C° 1.1 mm 8 mps 745 mmHg 94%
    14:00 +7°C° 1.1 mm 8 mps 744 mmHg 94%
    15:00 +10°C° 1.1 mm 7 mps 743 mmHg 94%
    16:00 +9°C° 0.1 mm 7 mps 742 mmHg 93%
    17:00 +9°C° 0.1 mm 7 mps 742 mmHg 91%
    18:00 +9°C° 0.1 mm 7 mps 741 mmHg 90%
    19:00 +9°C° 0 mm 8 mps 741 mmHg 90%
    20:00 +8°C° 0 mm 9 mps 740 mmHg 89%
    21:00 +8°C° 0 mm 9 mps 739 mmHg 89%
    22:00 +8°C° 0 mm 9 mps 738 mmHg 88%
    23:00 +8°C° 0 mm 9 mps 738 mmHg 88%

    Tomorrow, 29 February, Saturday

    Time Temperature Precipitation Wind Pressure Humidity
    00:00 +8°C° 0 mm 9 mps 737 mmHg 87%
    01:00 +8°C° 0.2 mm 10 mps 735 mmHg 88%
    02:00 +8°C° 0.2 mm 11 mps 734 mmHg 89%
    03:00 +8°C° 0.2 mm 12 mps 732 mmHg 90%
    04:00 +7°C° 1.1 mm 11 mps 731 mmHg 90%
    05:00 +7°C° 1.1 mm 11 mps 731 mmHg 90%
    06:00 +6°C° 1.1 mm 11 mps 730 mmHg 91%
    07:00 +5°C° 0.8 mm 10 mps 730 mmHg 88%
    08:00 +3°C° 0.8 mm 9 mps 730 mmHg 85%
    09:00 +2°C° 0.8 mm 8 mps 730 mmHg 83%
    10:00 +2°C° 0.1 mm 9 mps 731 mmHg 77%
    11:00 +2°C° 0.1 mm 10 mps 732 mmHg 72%
    12:00 +3°C° 0.1 mm 10 mps 733 mmHg 67%
    13:00 +3°C° 0.2 mm 11 mps 732 mmHg 66%
    14:00 +3°C° 0.2 mm 11 mps 732 mmHg 66%
    15:00 +3°C° 0.2 mm 11 mps 732 mmHg 65%
    16:00 +2°C° 0 mm 10 mps 732 mmHg 67%
    17:00 +1°C° 0 mm 9 mps 732 mmHg 69%
    18:00 +1°C° 0 mm 9 mps 733 mmHg 71%
    19:00 +1°C° 0 mm 9 mps 733 mmHg 71%
    20:00 +1°C° 0 mm 9 mps 733 mmHg 70%
    21:00 0°C° 0 mm 9 mps 733 mmHg 70%
    22:00 0°C° 0 mm 9 mps 733 mmHg 71%
    23:00 0°C° 0 mm 9 mps 733 mmHg 73%

    Day after tomorrow, 1 March, Sunday

    Time Temperature Precipitation Wind Pressure Humidity
    00:00 0°C° 0 mm 9 mps 733 mmHg 74%
    01:00 0°C° 0 mm 9 mps 733 mmHg 75%
    02:00 0°C° 0 mm 9 mps 733 mmHg 77%
    03:00 0°C° 0 mm 9 mps 734 mmHg 79%
    04:00 0°C° 0 mm 9 mps 734 mmHg 79%
    05:00 0°C° 0 mm 8 mps 734 mmHg 79%
    06:00 0°C° 0 mm 7 mps 734 mmHg 80%
    07:00 +2°C° 0 mm 7 mps 734 mmHg 77%
    08:00 +1°C° 0 mm 8 mps 734 mmHg 75%
    09:00 +2°C° 0 mm 8 mps 734 mmHg 72%
    10:00 +2°C° 0.2 mm 8 mps 734 mmHg 71%
    11:00 +3°C° 0.2 mm 9 mps 735 mmHg 69%
    12:00 +5°C° 0.2 mm 9 mps 735 mmHg 67%
    13:00 +5°C° 0.2 mm 9 mps 735 mmHg 67%
    14:00 +5°C° 0.2 mm 9 mps 735 mmHg 67%
    15:00 +5°C° 0.2 mm 8 mps 735 mmHg 68%
    16:00 +4°C° 0 mm 7 mps 735 mmHg 72%
    17:00 +2°C° 0 mm 6 mps 735 mmHg 76%
    18:00 +1°C° 0 mm 5 mps 735 mmHg 80%
    19:00 +1°C° 0 mm 5 mps 735 mmHg 81%
    20:00 +1°C° 0 mm 5 mps 735 mmHg 82%
    21:00 -1°C° 0 mm 6 mps 736 mmHg 83%
    22:00 0°C° 0 mm 5 mps 736 mmHg 83%
    23:00 0°C° 0 mm 5 mps 736 mmHg 83%

    2 March, Monday

    Time Temperature Precipitation Wind Pressure Humidity
    00:00 0°C° 0 mm 5 mps 736 mmHg 83%
    01:00 -1°C° 0 mm 5 mps 736 mmHg 85%
    02:00 -1°C° 0 mm 4 mps 736 mmHg 86%
    03:00 -1°C° 0 mm 4 mps 736 mmHg 88%
    04:00 -1°C° 0 mm 4 mps 736 mmHg 90%
    05:00 -1°C° 0 mm 4 mps 736 mmHg 91%
    06:00 0°C° 0 mm 3 mps 737 mmHg 93%
    07:00 0°C° 0 mm 4 mps 737 mmHg 87%
    08:00 +1°C° 0 mm 4 mps 737 mmHg 81%
    09:00 +2°C° 0 mm 5 mps 738 mmHg 76%
    10:00 +3°C° 0 mm 5 mps 738 mmHg 71%
    11:00 +5°C° 0 mm 5 mps 738 mmHg 66%
    12:00 +4°C° 0 mm 6 mps 739 mmHg 61%
    13:00 +4°C° 0.1 mm 6 mps 739 mmHg 62%
    14:00 +4°C° 0.1 mm 6 mps 739 mmHg 62%
    15:00 +5°C° 0.1 mm 6 mps 739 mmHg 63%
    16:00 +3°C° 0.1 mm 5 mps 740 mmHg 69%
    17:00 +2°C° 0.1 mm 5 mps 740 mmHg 74%
    18:00 +1°C° 0.1 mm 4 mps 741 mmHg 79%
    19:00 +1°C° 0 mm 4 mps 741 mmHg 81%
    20:00 0°C° 0 mm 4 mps 742 mmHg 82%
    21:00 -1°C° 0 mm 4 mps 742 mmHg 83%
    22:00 -1°C° 0 mm 4 mps 743 mmHg 84%
    23:00 -1°C° 0 mm 4 mps 743 mmHg 85%

    3 March, Tuesday

    Time Temperature Precipitation Wind Pressure Humidity
    00:00 -1°C° 0 mm 4 mps 743 mmHg 85%
    01:00 -1°C° 0 mm 4 mps 743 mmHg 86%
    02:00 -1°C° 0 mm 5 mps 743 mmHg 86%
    03:00 -1°C° 0 mm 5 mps 743 mmHg 86%
    04:00 -2°C° 0 mm 4 mps 743 mmHg 86%
    05:00 -2°C° 0 mm 4 mps 743 mmHg 87%
    06:00 -2°C° 0 mm 4 mps 744 mmHg 87%
    07:00 -1°C° 0 mm 5 mps 744 mmHg 82%
    08:00 +1°C° 0 mm 5 mps 744 mmHg 77%
    09:00 +2°C° 0 mm 6 mps 745 mmHg 71%
    10:00 +3°C° 0.1 mm 6 mps 745 mmHg 67%
    11:00 +4°C° 0.1 mm 7 mps 745 mmHg 64%
    12:00 +5°C° 0.1 mm 7 mps 745 mmHg 60%
    13:00 +5°C° 0.2 mm 7 mps 745 mmHg 61%
    14:00 +5°C° 0.2 mm 7 mps 746 mmHg 63%
    15:00 +5°C° 0.2 mm 7 mps 746 mmHg 64%
    16:00 +4°C° 0.1 mm 6 mps 746 mmHg 69%
    17:00 +2°C° 0.1 mm 5 mps 746 mmHg 74%
    18:00 +1°C° 0.1 mm 4 mps 747 mmHg 79%
    19:00 +1°C° 0 mm 4 mps 748 mmHg 81%
    20:00 0°C° 0 mm 4 mps 748 mmHg 84%
    21:00 0°C° 0 mm 4 mps 749 mmHg 87%
    22:00 -1°C° 0 mm 4 mps 749 mmHg 87%
    23:00 -1°C° 0 mm 4 mps 750 mmHg 88%

    4 March, Wednesday

    Time Temperature Precipitation Wind Pressure Humidity
    00:00 -1°C° 0 mm 4 mps 750 mmHg 88%
    01:00 -1°C° 0 mm 3 mps 750 mmHg 88%
    02:00 -1°C° 0 mm 3 mps 750 mmHg 88%
    03:00 -1°C° 0 mm 2 mps 750 mmHg 88%
    04:00 -1°C° 0 mm 2 mps 751 mmHg 87%
    05:00 -1°C° 0 mm 2 mps 751 mmHg 87%
    06:00 -1°C° 0 mm 2 mps 751 mmHg 86%
    07:00 +1°C° 0 mm 2 mps 750 mmHg 83%
    08:00 +2°C° 0 mm 3 mps 750 mmHg 79%
    09:00 +3°C° 0 mm 3 mps 750 mmHg 76%
    10:00 +4°C° 0 mm 4 mps 749 mmHg 74%
    11:00 +5°C° 0 mm 5 mps 749 mmHg 72%
    12:00 +6°C° 0 mm 7 mps 748 mmHg 70%
    13:00 +5°C° 0.5 mm 7 mps 747 mmHg 76%
    14:00 +4°C° 0.5 mm 7 mps 745 mmHg 82%
    15:00 +2°C° 0.5 mm 8 mps 744 mmHg 89%
    16:00 +4°C° 1.4 mm 8 mps 742 mmHg 90%
    17:00 +4°C° 1.4 mm 8 mps 741 mmHg 92%
    18:00 +3°C° 1.4 mm 9 mps 739 mmHg 94%
    19:00 +4°C° 1.3 mm 8 mps 738 mmHg 95%
    20:00 +5°C° 1.3 mm 6 mps 737 mmHg 96%
    21:00 +7°C° 1.3 mm 5 mps 736 mmHg 97%
    22:00 +7°C° 0.2 mm 5 mps 735 mmHg 96%
    23:00 +6°C° 0.2 mm 4 mps 734 mmHg 96%
    Show more